DW4725 Weather Reports


Display with metric or nautical units.
time (UTC)temp
F
wind
direction
speed
MPH
gust
MPH
rain 1hr
in
rain 24hr
in
rain mn
in
humidity
%
barometer
mb
20260508173633 55 49 1.0 4.0 0.04 0.02 0.02 78 1014.2
20260508173432 55 75 1.0 3.0 0.04 0.02 0.02 77 1014.1
20260508173227 55 34 0.0 3.0 0.04 0.01 0.01 77 1014.2
20260508173018 54 41 0.0 3.0 0.06 0.01 0.01 78 1014.2
20260508172453 54 232 0.0 0.0 0.11 0.01 0.01 79 1014.1
20260508172243 54 232 0.0 0.0 0.00 0.00 0.00 80 1014.1
20260508172036 55 232 0.0 7.0 0.00 0.00 0.00 81 1014.1
20260508171504 56 290 0.0 3.0 0.00 0.00 0.00 79 1014.1
20260508171304 56 282 0.0 5.0 0.00 0.00 0.00 80 1014.0
20260508171105 57 129 1.0 5.0 0.00 0.00 0.00 78 1013.9
20260508170903 57 125 1.0 5.0 0.00 0.00 0.00 77 1013.9
20260508170653 57 134 1.0 5.0 0.00 0.00 0.00 77 1013.7
20260508170451 57 126 2.0 5.0 0.00 0.00 0.00 77 1013.8
20260508170241 57 98 2.0 5.0 0.00 0.00 0.00 77 1013.7
20260508165714 57 88 2.0 5.0 0.00 0.00 0.00 77 1013.6
20260508165508 57 103 2.0 5.0 0.00 0.00 0.00 77 1013.6
20260508165306 57 127 2.0 7.0 0.00 0.00 0.00 77 1013.6
20260508165103 57 93 2.0 7.0 0.00 0.00 0.00 77 1013.5
20260508164538 58 111 2.0 7.0 0.00 0.00 0.00 78 1013.5
20260508164328 58 93 2.0 7.0 0.00 0.00 0.00 77 1013.5
20260508163805 59 92 3.0 7.0 0.00 0.00 0.00 77 1013.4
20260508163606 59 75 3.0 7.0 0.00 0.00 0.00 76 1013.4
20260508163404 59 75 2.0 7.0 0.00 0.00 0.00 75 1013.5
20260508163154 59 76 2.0 6.0 0.00 0.00 0.00 74 1013.4
20260508162953 59 39 1.0 6.0 0.00 0.00 0.00 74 1013.5
20260508162751 60 52 1.0 5.0 0.00 0.00 0.00 73 1013.5
20260508162549 60 98 1.0 4.0 0.00 0.00 0.00 72 1013.5
20260508162345 60 59 1.0 4.0 0.00 0.00 0.00 72 1013.4
20260508162144 60 100 1.0 3.0 0.00 0.00 0.00 73 1013.4
20260508161937 60 96 1.0 3.0 0.00 0.00 0.00 72 1013.3
20260508161733 60 98 1.0 3.0 0.00 0.00 0.00 72 1013.3
20260508161531 60 108 1.0 4.0 0.00 0.00 0.00 73 1013.3
20260508161325 60 112 1.0 4.0 0.00 0.00 0.00 73 1013.3
20260508161121 60 89 1.0 4.0 0.00 0.00 0.00 73 1013.2
20260508160917 60 105 1.0 4.0 0.00 0.00 0.00 72 1013.1
20260508160710 60 134 1.0 4.0 0.00 0.00 0.00 72 1013.0
20260508160510 60 113 2.0 8.0 0.00 0.00 0.00 72 1013.0
20260508160301 60 104 2.0 8.0 0.00 0.00 0.00 71 1013.0
20260508160054 60 105 2.0 8.0 0.00 0.00 0.00 70 1013.0
20260508155845 60 49 2.0 8.0 0.00 0.00 0.00 70 1013.0
20260508155636 60 63 2.0 8.0 0.00 0.00 0.00 70 1013.0
20260508155104 61 85 3.0 8.0 0.00 0.00 0.00 70 1013.0
20260508154904 61 86 3.0 8.0 0.00 0.00 0.00 70 1013.0
20260508154703 61 109 2.0 8.0 0.00 0.00 0.00 68 1012.9
20260508154459 62 70 2.0 6.0 0.00 0.00 0.00 68 1013.0
20260508153925 62 60 1.0 5.0 0.00 0.00 0.00 65 1012.9
20260508153724 63 56 0.0 3.0 0.00 0.00 0.00 62 1013.0
20260508153525 63 40 0.0 3.0 0.00 0.00 0.00 63 1012.9
20260508153318 63 75 0.0 3.0 0.00 0.00 0.00 64 1013.0
20260508153110 63 53 0.0 2.0 0.00 0.00 0.00 64 1012.9
20260508152901 63 53 0.0 2.0 0.00 0.00 0.00 63 1012.9
20260508152657 63 39 0.0 2.0 0.00 0.00 0.00 66 1012.9
20260508152447 63 45 0.0 2.0 0.00 0.00 0.00 64 1012.9
20260508152239 63 288 0.0 2.0 0.00 0.00 0.00 65 1012.9
20260508152032 63 36 0.0 2.0 0.00 0.00 0.00 64 1012.8
20260508151831 63 51 0.0 2.0 0.00 0.00 0.00 65 1012.8
20260508151628 63 60 0.0 2.0 0.00 0.00 0.00 65 1012.8
20260508151104 63 56 0.0 2.0 0.00 0.00 0.00 65 1013.0
20260508150541 63 73 0.0 1.0 0.00 0.00 0.00 64 1013.1
20260508150331 63 72 0.0 1.0 0.00 0.00 0.00 63 1013.1
20260508145805 63 74 0.0 2.0 0.00 0.00 0.00 66 1013.1
20260508145602 62 354 0.0 0.0 0.00 0.00 0.00 66 1013.1
20260508145358 62 267 0.0 0.0 0.00 0.00 0.00 66 1013.2
20260508145151 62 267 0.0 0.0 0.00 0.00 0.00 64 1013.2
20260508144948 62 59 0.0 0.0 0.00 0.00 0.00 64 1013.2
20260508144749 62 59 0.0 2.0 0.00 0.00 0.00 64 1013.2
20260508144539 62 51 0.0 2.0 0.00 0.00 0.00 63 1013.2
20260508144331 62 68 0.0 4.0 0.00 0.00 0.00 63 1013.2
20260508143757 63 41 0.0 4.0 0.00 0.00 0.00 63 1013.4
20260508143550 63 47 0.0 4.0 0.00 0.00 0.00 62 1013.4
20260508143027 63 57 0.0 4.0 0.00 0.00 0.00 63 1013.4
20260508142816 63 58 0.0 4.0 0.00 0.00 0.00 63 1013.4
20260508142615 63 65 0.0 4.0 0.00 0.00 0.00 62 1013.4
20260508142415 63 39 0.0 4.0 0.00 0.00 0.00 65 1013.4
20260508142214 63 45 0.0 4.0 0.00 0.00 0.00 65 1013.4
20260508142005 63 259 1.0 4.0 0.00 0.00 0.00 64 1013.4
20260508141804 63 283 0.0 5.0 0.00 0.00 0.00 64 1013.5
20260508141600 63 222 1.0 5.0 0.00 0.00 0.00 64 1013.4
20260508141350 63 71 1.0 5.0 0.00 0.00 0.00 64 1013.5
20260508140826 62 85 2.0 5.0 0.00 0.00 0.00 65 1013.6
20260508135948 63 39 0.0 5.0 0.00 0.00 0.00 64 1013.7
20260508135747 63 50 0.0 3.0 0.00 0.00 0.00 67 1013.7
20260508135540 63 46 0.0 0.0 0.00 0.00 0.00 68 1013.7
20260508135340 63 71 0.0 1.0 0.00 0.00 0.00 66 1013.7
20260508135130 63 49 0.0 1.0 0.00 0.00 0.00 66 1013.7
20260508134600 62 127 0.0 1.0 0.00 0.00 0.00 66 1013.7
20260508134354 62 124 1.0 0.0 0.00 0.00 0.00 64 1013.7
20260508134150 62 124 2.0 5.0 0.00 0.00 0.00 65 1013.8
20260508133951 62 99 2.0 5.0 0.00 0.00 0.00 65 1013.8
20260508133746 62 41 2.0 5.0 0.00 0.00 0.00 65 1013.8
20260508133537 62 45 2.0 5.0 0.00 0.00 0.00 65 1014.0
20260508132702 62 64 0.0 3.0 0.00 0.00 0.00 67 1014.0
20260508132458 62 214 0.0 0.0 0.00 0.00 0.00 70 1013.9
20260508132256 61 214 0.0 1.0 0.00 0.00 0.00 69 1014.0
20260508132056 61 238 0.0 0.0 0.00 0.00 0.00 68 1014.0
20260508131847 61 284 0.0 1.0 0.00 0.00 0.00 68 1014.0
20260508131642 61 283 0.0 1.0 0.00 0.00 0.00 68 1014.0
20260508131119 62 277 1.0 4.0 0.00 0.00 0.00 67 1014.0
20260508130916 62 293 1.0 4.0 0.00 0.00 0.00 68 1014.0
20260508130355 63 45 2.0 10.0 0.00 0.00 0.00 67 1014.1
20260508130150 63 299 2.0 10.0 0.00 0.00 0.00 68 1014.0
20260508125940 62 131 3.0 10.0 0.00 0.00 0.00 68 1014.1
20260508125741 62 68 3.0 10.0 0.00 0.00 0.00 68 1014.1
20260508125535 62 58 3.0 10.0 0.00 0.00 0.00 67 1014.1
20260508125332 62 44 2.0 10.0 0.00 0.00 0.00 68 1014.0
20260508125122 63 45 2.0 10.0 0.00 0.00 0.00 67 1014.0
20260508124917 63 87 1.0 10.0 0.00 0.00 0.00 69 1014.0
20260508124717 62 42 1.0 7.0 0.00 0.00 0.00 68 1014.0
20260508124157 62 66 2.0 10.0 0.00 0.00 0.00 65 1014.2
20260508123956 62 63 1.0 10.0 0.00 0.00 0.00 69 1014.1
20260508123438 62 50 2.0 10.0 0.00 0.00 0.00 69 1014.1
20260508123228 62 277 2.0 10.0 0.00 0.00 0.00 67 1014.1
20260508123025 62 280 2.0 10.0 0.00 0.00 0.00 70 1014.2
20260508122824 62 39 3.0 10.0 0.00 0.00 0.00 68 1014.1
20260508122306 62 60 2.0 7.0 0.00 0.00 0.00 71 1014.2
20260508122100 61 43 2.0 6.0 0.00 0.00 0.00 71 1014.2
20260508121851 61 44 2.0 6.0 0.00 0.00 0.00 69 1014.1
20260508121326 61 40 1.0 6.0 0.00 0.00 0.00 70 1014.2
20260508121124 61 44 1.0 7.0 0.00 0.00 0.00 71 1014.3
20260508120551 61 44 1.0 7.0 0.00 0.00 0.00 66 1014.2
20260508120351 61 63 2.0 7.0 0.00 0.00 0.00 69 1014.2
20260508120142 61 75 3.0 7.0 0.00 0.00 0.00 70 1014.3
20260508115933 61 44 2.0 7.0 0.00 0.00 0.00 69 1014.2
20260508115729 61 61 2.0 7.0 0.00 0.00 0.00 70 1014.2
20260508115523 61 337 2.0 7.0 0.00 0.00 0.00 70 1014.2
20260508115316 61 44 2.0 7.0 0.00 0.00 0.00 69 1014.3
20260508115117 61 29 2.0 6.0 0.00 0.00 0.00 71 1014.3
20260508114906 61 40 1.0 6.0 0.00 0.00 0.00 70 1014.3
20260508114702 61 53 2.0 6.0 0.00 0.00 0.00 67 1014.3
20260508114500 61 39 1.0 6.0 0.00 0.00 0.00 68 1014.3
20260508114300 61 56 0.0 6.0 0.00 0.00 0.00 70 1014.4
20260508114059 61 85 1.0 6.0 0.00 0.00 0.00 68 1014.4
20260508113856 61 46 1.0 6.0 0.00 0.00 0.00 68 1014.3
20260508113654 61 290 0.0 6.0 0.00 0.00 0.00 69 1014.4
20260508113130 60 46 1.0 6.0 0.00 0.00 0.00 68 1014.2
20260508112928 60 78 1.0 6.0 0.00 0.00 0.00 67 1014.3
20260508112723 60 100 1.0 6.0 0.00 0.00 0.00 67 1014.3
20260508112514 60 37 1.0 6.0 0.00 0.00 0.00 68 1014.3
20260508112311 60 289 1.0 6.0 0.00 0.00 0.00 67 1014.5
20260508112106 60 288 1.0 6.0 0.00 0.00 0.00 68 1014.5
20260508111904 61 51 0.0 4.0 0.00 0.00 0.00 68 1014.5
20260508111654 61 276 0.0 4.0 0.00 0.00 0.00 71 1014.5
20260508111125 60 357 0.0 7.0 0.00 0.00 0.00 70 1014.4
20260508110248 60 232 2.0 6.0 0.00 0.00 0.00 70 1014.4
20260508110047 60 287 2.0 6.0 0.00 0.00 0.00 72 1014.4
20260508105841 60 22 2.0 6.0 0.00 0.00 0.00 73 1014.5
20260508105632 60 43 1.0 6.0 0.00 0.00 0.00 71 1014.5
20260508105424 60 59 1.0 4.0 0.00 0.00 0.00 71 1014.5
20260508105221 60 294 1.0 4.0 0.00 0.00 0.00 73 1014.6
20260508105013 60 68 0.0 3.0 0.00 0.00 0.00 74 1014.6
20260508104810 59 283 1.0 7.0 0.00 0.00 0.00 72 1014.6
20260508104254 59 311 1.0 6.0 0.00 0.00 0.00 73 1014.6
20260508104047 59 203 2.0 6.0 0.00 0.00 0.00 75 1014.6
20260508103844 59 43 2.0 6.0 0.00 0.00 0.00 74 1014.6
20260508103640 59 44 1.0 6.0 0.00 0.00 0.00 74 1014.6
20260508103436 59 55 1.0 6.0 0.00 0.00 0.00 72 1014.6
20260508103234 59 44 1.0 6.0 0.00 0.00 0.00 72 1014.6
20260508103025 60 32 0.0 6.0 0.00 0.00 0.00 73 1014.6
20260508102826 60 285 0.0 4.0 0.00 0.00 0.00 76 1014.8
20260508102625 60 276 0.0 4.0 0.00 0.00 0.00 78 1014.6
20260508102415 59 78 0.0 4.0 0.00 0.00 0.00 77 1014.7
20260508102212 59 73 0.0 5.0 0.00 0.00 0.00 76 1014.7
20260508102005 59 101 1.0 5.0 0.00 0.00 0.00 78 1014.8
20260508101758 59 274 1.0 5.0 0.00 0.00 0.00 77 1014.8
20260508101554 58 262 2.0 5.0 0.00 0.00 0.00 79 1014.8
20260508101355 58 44 2.0 5.0 0.00 0.00 0.00 77 1014.8
20260508101150 58 70 2.0 5.0 0.00 0.00 0.00 76 1014.8
20260508100941 58 248 2.0 5.0 0.00 0.00 0.00 79 1014.8
20260508100734 58 54 1.0 5.0 0.00 0.00 0.00 78 1014.8
20260508100526 58 60 1.0 5.0 0.00 0.00 0.00 76 1014.8
20260508100318 58 29 1.0 5.0 0.00 0.00 0.00 76 1014.8
20260508100113 58 46 1.0 4.0 0.00 0.00 0.00 79 1014.8
20260508095908 58 297 1.0 4.0 0.00 0.00 0.00 79 1014.7
20260508095343 58 236 0.0 4.0 0.00 0.00 0.00 77 1014.8
20260508095139 58 262 0.0 4.0 0.00 0.00 0.00 74 1014.8
20260508094936 59 295 0.0 3.0 0.00 0.00 0.00 78 1014.7
20260508094733 58 252 0.0 0.0 0.00 0.00 0.00 75 1014.7
20260508094522 58 321 0.0 0.0 0.00 0.00 0.00 76 1014.8
20260508094004 57 40 0.0 2.0 0.00 0.00 0.00 79 1014.7
20260508093800 57 286 0.0 0.0 0.00 0.00 0.00 79 1014.7
20260508093554 57 287 0.0 3.0 0.00 0.00 0.00 77 1014.7
20260508093343 57 289 0.0 3.0 0.00 0.00 0.00 76 1014.7
20260508093135 57 269 0.0 3.0 0.00 0.00 0.00 76 1014.7
20260508092934 57 285 0.0 3.0 0.00 0.00 0.00 80 1014.6
20260508092725 57 51 0.0 3.0 0.00 0.00 0.00 80 1014.7
20260508092522 56 280 0.0 0.0 0.00 0.00 0.00 80 1014.7
20260508092319 56 278 0.0 4.0 0.00 0.00 0.00 80 1014.7
20260508092119 56 290 0.0 4.0 0.00 0.00 0.00 78 1014.7
20260508091914 56 276 0.0 4.0 0.00 0.00 0.00 81 1014.7
20260508091709 56 75 0.0 5.0 0.00 0.00 0.00 81 1014.7
20260508091509 56 287 0.0 5.0 0.00 0.00 0.00 82 1014.7
20260508091305 56 65 0.0 5.0 0.00 0.00 0.00 80 1014.8
20260508091103 56 56 0.0 5.0 0.00 0.00 0.00 83 1014.8
20260508090543 55 142 1.0 5.0 0.00 0.00 0.00 82 1014.8
20260508090335 55 63 1.0 5.0 0.00 0.00 0.00 82 1014.8
20260508090127 55 44 1.0 5.0 0.00 0.00 0.00 83 1014.8
20260508085604 56 63 0.0 4.0 0.00 0.00 0.00 80 1014.8
20260508085403 56 44 0.0 2.0 0.00 0.00 0.00 81 1014.8
20260508085202 56 257 0.0 2.0 0.00 0.00 0.00 81 1014.8
20260508084643 55 153 0.0 2.0 0.00 0.00 0.00 83 1014.8
20260508084436 55 249 0.0 2.0 0.00 0.00 0.00 81 1014.9
20260508084226 55 290 0.0 2.0 0.00 0.00 0.00 82 1014.8
20260508084021 55 278 0.0 2.0 0.00 0.00 0.00 82 1014.9
20260508083821 55 286 0.0 2.0 0.00 0.00 0.00 83 1014.9
20260508083302 54 67 0.0 1.0 0.00 0.00 0.00 81 1014.9
20260508083058 54 303 0.0 0.0 0.00 0.00 0.00 81 1014.9
20260508082851 55 293 0.0 2.0 0.00 0.00 0.00 82 1014.9
20260508082332 55 284 0.0 1.0 0.00 0.00 0.00 82 1014.8
20260508082123 54 244 0.0 1.0 0.00 0.00 0.00 82 1014.9
20260508081919 54 64 0.0 1.0 0.00 0.00 0.00 83 1014.8
20260508081716 54 265 0.0 1.0 0.00 0.00 0.00 84 1014.7
20260508081508 53 257 0.0 0.0 0.00 0.00 0.00 83 1014.8
20260508081305 53 291 0.0 2.0 0.00 0.00 0.00 82 1014.8
20260508081057 54 297 0.0 2.0 0.00 0.00 0.00 81 1014.8
20260508080848 54 49 0.0 2.0 0.00 0.00 0.00 83 1014.8
20260508080645 53 49 0.0 2.0 0.00 0.00 0.00 82 1014.7
20260508080112 53 260 0.0 1.0 0.00 0.00 0.00 84 1014.7
20260508075911 53 285 0.0 1.0 0.00 0.00 0.00 84 1014.6
20260508075708 52 280 0.0 3.0 0.00 0.00 0.00 83 1014.7
20260508075147 53 316 0.0 3.0 0.00 0.00 0.00 84 1014.6
20260508074946 53 291 0.0 3.0 0.00 0.00 0.00 84 1014.7
20260508074736 53 278 0.0 1.0 0.00 0.00 0.00 84 1014.6
20260508074216 53 276 0.0 3.0 0.00 0.00 0.00 84 1014.6
20260508073643 52 214 0.0 3.0 0.00 0.00 0.00 84 1014.5
20260508073114 52 92 0.0 2.0 0.00 0.00 0.00 85 1014.5
20260508072912 52 298 0.0 2.0 0.00 0.00 0.00 84 1014.5
20260508072710 52 80 0.0 2.0 0.00 0.00 0.00 87 1014.6
20260508072508 51 57 0.0 2.0 0.00 0.00 0.00 86 1014.6
20260508072307 51 263 0.0 0.0 0.00 0.00 0.00 85 1014.6
20260508072103 52 259 0.0 0.0 0.00 0.00 0.00 85 1014.5
20260508071546 52 217 0.0 0.0 0.00 0.00 0.00 87 1014.5
20260508071023 52 283 0.0 3.0 0.00 0.00 0.00 85 1014.6
20260508070821 52 53 0.0 3.0 0.00 0.00 0.00 85 1014.6
20260508070615 52 284 0.0 2.0 0.00 0.00 0.00 84 1014.5
20260508070040 52 53 0.0 2.0 0.00 0.00 0.00 83 1014.5
20260508065832 53 42 0.0 2.0 0.00 0.00 0.00 85 1014.6
20260508065628 53 66 0.0 2.0 0.00 0.00 0.00 85 1014.6
20260508065421 53 345 0.0 2.0 0.00 0.00 0.00 86 1014.6
20260508065221 52 53 0.0 2.0 0.00 0.00 0.00 86 1014.5
20260508065015 52 52 0.0 2.0 0.00 0.00 0.00 86 1014.5
20260508064809 52 49 0.0 2.0 0.00 0.00 0.00 85 1014.4
20260508064607 52 49 0.0 2.0 0.00 0.00 0.00 85 1014.4
20260508064402 51 72 0.0 2.0 0.00 0.00 0.00 86 1014.4
20260508064200 51 60 0.0 2.0 0.00 0.00 0.00 87 1014.4
20260508063630 51 68 0.0 3.0 0.00 0.00 0.00 87 1014.4
20260508063431 50 70 0.0 3.0 0.00 0.00 0.00 86 1014.4
20260508063231 50 56 0.0 3.0 0.00 0.00 0.00 86 1014.4
20260508062706 50 55 0.0 3.0 0.00 0.00 0.00 86 1014.3
20260508062504 50 51 0.0 3.0 0.00 0.00 0.00 87 1014.2
20260508062254 50 89 0.0 3.0 0.00 0.00 0.00 86 1014.2
20260508062055 50 69 0.0 2.0 0.00 0.00 0.00 87 1014.2
20260508061856 50 68 0.0 2.0 0.00 0.00 0.00 86 1014.2
20260508061652 51 53 0.0 2.0 0.00 0.00 0.00 86 1014.1
20260508061442 50 76 0.0 1.0 0.00 0.00 0.00 88 1014.0
20260508061239 50 106 0.0 4.0 0.00 0.00 0.00 88 1014.0
20260508061029 49 106 0.0 4.0 0.00 0.00 0.00 88 1014.1
20260508060830 49 101 0.0 4.0 0.00 0.00 0.00 89 1014.0
20260508060619 49 105 0.0 4.0 0.00 0.00 0.00 90 1014.1
20260508060412 48 105 0.0 4.0 0.00 0.00 0.00 90 1014.0
20260508055855 47 115 1.0 4.0 0.00 0.00 0.00 90 1014.0
20260508055649 47 118 1.0 4.0 0.00 0.00 0.00 90 1014.1
20260508055448 47 114 1.0 4.0 0.00 0.00 0.00 90 1014.1
20260508055244 47 124 1.0 4.0 0.00 0.00 0.00 90 1014.1
20260508055039 47 124 1.0 3.0 0.00 0.00 0.00 90 1014.1
20260508054835 47 117 1.0 3.0 0.00 0.00 0.00 90 1014.1
20260508054311 47 130 1.0 2.0 0.00 0.00 0.00 91 1014.1
20260508054112 47 102 1.0 2.0 0.00 0.00 0.00 91 1014.1
20260508053908 47 144 1.0 2.0 0.00 0.00 0.00 91 1014.0
20260508053703 47 108 1.0 2.0 0.00 0.00 0.00 90 1014.1
20260508053501 47 118 1.0 2.0 0.00 0.00 0.00 91 1014.1
20260508053259 47 120 1.0 2.0 0.00 0.00 0.00 91 1014.0
20260508053048 47 120 1.0 2.0 0.00 0.00 0.00 91 1014.0
20260508052526 47 120 1.0 2.0 0.00 0.00 0.00 91 1014.0
20260508052318 47 117 1.0 2.0 0.00 0.00 0.00 91 1014.0
20260508052118 47 115 1.0 2.0 0.00 0.00 0.00 91 1013.9
20260508051916 47 129 1.0 3.0 0.00 0.00 0.00 91 1013.9
20260508051707 47 120 1.0 3.0 0.00 0.00 0.00 91 1014.0
20260508051457 47 115 1.0 3.0 0.00 0.00 0.00 91 1013.8
20260508051251 46 122 1.0 3.0 0.00 0.00 0.00 91 1013.8
20260508051045 46 124 1.0 3.0 0.00 0.00 0.00 92 1013.9
20260508050846 46 113 1.0 3.0 0.00 0.00 0.00 92 1014.0
20260508050643 46 126 1.0 3.0 0.00 0.00 0.00 92 1013.9
20260508050442 46 119 1.0 3.0 0.00 0.00 0.00 92 1013.9
20260508050238 46 115 1.0 3.0 0.00 0.00 0.00 92 1013.8
20260508045707 46 117 1.0 3.0 0.00 0.00 0.00 92 1013.9
20260508045503 46 120 1.0 3.0 0.00 0.00 0.00 93 1013.8
20260508044934 45 114 1.0 3.0 0.00 0.00 0.00 92 1013.8
20260508044410 46 115 1.0 5.0 0.00 0.00 0.00 92 1013.7
20260508043839 45 103 2.0 5.0 0.00 0.00 0.00 93 1013.8
20260508043635 45 102 2.0 5.0 0.00 0.00 0.00 93 1013.7
20260508043433 45 97 2.0 5.0 0.00 0.00 0.00 93 1013.9
20260508043231 45 118 2.0 5.0 0.00 0.00 0.00 93 1013.8
20260508043024 45 99 2.0 5.0 0.00 0.00 0.00 93 1013.8
20260508042816 45 100 2.0 4.0 0.00 0.00 0.00 93 1013.7
20260508042301 45 124 1.0 4.0 0.00 0.00 0.00 93 1013.7
20260508042054 45 124 1.0 3.0 0.00 0.00 0.00 93 1013.7
20260508041854 45 122 0.0 3.0 0.00 0.00 0.00 93 1013.7
20260508041655 45 104 0.0 2.0 0.00 0.00 0.00 93 1013.6
20260508041448 45 124 0.0 2.0 0.00 0.00 0.00 93 1013.6
20260508040914 45 115 0.0 1.0 0.00 0.00 0.00 94 1013.6
20260508040340 45 123 0.0 0.0 0.00 0.00 0.00 94 1013.6
20260508040133 45 123 0.0 0.0 0.00 0.00 0.00 94 1013.6
20260508035929 45 126 0.0 0.0 0.00 0.00 0.00 94 1013.6
20260508035726 45 126 0.0 0.0 0.00 0.00 0.00 94 1013.6
20260508035522 45 126 0.0 0.0 0.00 0.00 0.00 94 1013.6
20260508035004 45 126 0.0 0.0 0.00 0.00 0.00 94 1013.7
20260508034754 45 126 0.0 0.0 0.00 0.00 0.00 94 1013.7
20260508034227 45 126 0.0 0.0 0.00 0.00 0.00 94 1013.7
20260508034025 45 126 0.0 0.0 0.00 0.00 0.00 94 1013.7
20260508033506 45 126 0.0 0.0 0.00 0.00 0.00 94 1013.7
20260508033303 45 126 0.0 0.0 0.00 0.00 0.00 94 1013.7
20260508033057 45 126 0.0 0.0 0.00 0.00 0.00 93 1013.7
20260508032849 45 126 0.0 0.0 0.00 0.00 0.00 93 1013.7
20260508032643 45 126 0.0 0.0 0.00 0.00 0.00 93 1013.7
20260508032436 45 126 0.0 0.0 0.00 0.00 0.00 93 1013.7
20260508032228 45 126 0.0 0.0 0.00 0.00 0.00 93 1013.7
20260508032018 45 126 0.0 0.0 0.00 0.00 0.00 93 1013.7
20260508031818 45 126 0.0 0.0 0.00 0.00 0.00 93 1013.7
20260508031608 45 126 0.0 0.0 0.00 0.00 0.00 93 1013.6
20260508031406 45 126 0.0 0.0 0.00 0.00 0.00 93 1013.7
20260508031203 45 126 0.0 0.0 0.00 0.00 0.00 94 1013.6
20260508030958 45 126 0.0 0.0 0.00 0.00 0.00 94 1013.7
20260508030757 45 127 0.0 0.0 0.00 0.00 0.00 94 1013.6
20260508030548 45 127 0.0 0.0 0.00 0.00 0.00 93 1013.6
20260508030025 45 127 0.0 0.0 0.00 0.00 0.00 92 1013.6
20260508025822 45 127 0.0 0.0 0.00 0.00 0.00 92 1013.6
20260508025618 45 127 0.0 0.0 0.00 0.00 0.00 92 1013.6
20260508025411 45 127 0.0 0.0 0.00 0.00 0.00 92 1013.7
20260508025201 45 127 0.0 0.0 0.00 0.00 0.00 92 1013.6
20260508024956 45 127 0.0 0.0 0.00 0.00 0.00 92 1013.6
20260508024430 45 127 0.0 0.0 0.00 0.00 0.00 92 1013.6
20260508024221 46 127 0.0 0.0 0.00 0.00 0.00 92 1013.5
20260508024015 46 127 0.0 0.0 0.00 0.00 0.00 91 1013.6
20260508023816 46 127 0.0 0.0 0.00 0.00 0.00 91 1013.6
20260508023606 46 127 0.0 0.0 0.00 0.00 0.00 91 1013.5
20260508023358 46 127 0.0 0.0 0.00 0.00 0.00 91 1013.6
20260508023153 46 127 0.0 0.0 0.00 0.00 0.00 92 1013.6
20260508022952 46 127 0.0 0.0 0.00 0.00 0.00 91 1013.6
20260508022749 46 127 0.0 0.0 0.00 0.00 0.00 91 1013.6
20260508022234 46 127 0.0 0.0 0.00 0.00 0.00 91 1013.6
20260508022028 46 127 0.0 0.0 0.00 0.00 0.00 91 1013.5
20260508021821 46 127 0.0 0.0 0.00 0.00 0.00 92 1013.6
20260508021616 46 127 0.0 0.0 0.00 0.00 0.00 92 1013.5
20260508021406 46 127 0.0 0.0 0.00 0.00 0.00 92 1013.4
20260508021159 45 127 0.0 0.0 0.00 0.00 0.00 92 1013.5
20260508020638 45 127 0.0 0.0 0.00 0.00 0.00 92 1013.5
20260508020437 45 127 0.0 0.0 0.00 0.00 0.00 92 1013.5
20260508020235 45 127 0.0 0.0 0.00 0.00 0.00 92 1013.6
20260508020034 45 127 0.0 0.0 0.00 0.00 0.00 92 1013.6
20260508015826 46 127 0.0 0.0 0.00 0.00 0.00 92 1013.6
20260508015626 45 127 0.0 0.0 0.00 0.00 0.00 92 1013.6
20260508015102 45 127 0.0 0.0 0.00 0.00 0.00 92 1013.6
20260508014856 45 127 0.0 0.0 0.00 0.00 0.00 92 1013.5
20260508014649 45 127 0.0 0.0 0.00 0.00 0.00 92 1013.5
20260508014450 45 127 0.0 0.0 0.00 0.00 0.00 92 1013.6
20260508014249 45 127 0.0 0.0 0.00 0.00 0.00 92 1013.4
20260508014047 45 127 0.0 0.0 0.00 0.00 0.00 92 1013.5
20260508013841 45 127 0.0 0.0 0.00 0.00 0.00 92 1013.5
20260508013641 45 127 0.0 0.0 0.00 0.00 0.00 91 1013.4
20260508013434 45 127 0.0 0.0 0.00 0.00 0.00 91 1013.3
20260508013228 45 127 0.0 0.0 0.00 0.00 0.00 91 1013.3
20260508013029 45 127 1.0 3.0 0.00 0.00 0.00 91 1013.4
20260508012830 45 124 1.0 3.0 0.00 0.00 0.00 91 1013.3
20260508012624 45 120 1.0 3.0 0.00 0.00 0.00 92 1013.3
20260508012109 45 123 1.0 3.0 0.00 0.00 0.00 92 1013.3
20260508011231 45 113 1.0 4.0 0.00 0.00 0.00 92 1013.4
20260508011026 45 96 1.0 4.0 0.00 0.00 0.00 92 1013.4
20260508010825 45 98 2.0 4.0 0.00 0.00 0.00 92 1013.3
20260508010622 45 104 1.0 4.0 0.00 0.00 0.00 92 1013.4
20260508010421 45 119 1.0 4.0 0.00 0.00 0.00 92 1013.4
20260508010219 45 134 1.0 4.0 0.00 0.00 0.00 92 1013.3
20260508005650 45 117 0.0 1.0 0.00 0.00 0.00 92 1013.3
20260508005447 45 121 0.0 0.0 0.00 0.00 0.00 92 1013.3
20260508005247 45 120 0.0 0.0 0.00 0.00 0.00 92 1013.2
20260508004715 45 124 1.0 4.0 0.00 0.00 0.00 92 1013.3
20260508004512 45 108 1.0 4.0 0.00 0.00 0.00 92 1013.3
20260508003947 45 100 2.0 5.0 0.00 0.00 0.00 92 1013.3
20260508003742 45 103 2.0 5.0 0.00 0.00 0.00 92 1013.3
20260508003214 45 112 2.0 5.0 0.00 0.00 0.00 92 1013.4
20260508003013 45 125 3.0 5.0 0.00 0.00 0.00 92 1013.4
20260508002803 45 139 3.0 5.0 0.00 0.00 0.00 92 1013.4
20260508002557 45 110 3.0 5.0 0.00 0.00 0.00 92 1013.4
20260508002355 45 114 3.0 5.0 0.00 0.00 0.00 92 1013.4
20260508002154 45 107 3.0 5.0 0.00 0.00 0.00 92 1013.4
20260508001955 45 105 3.0 5.0 0.00 0.00 0.00 93 1013.5
20260508001747 45 123 3.0 5.0 0.00 0.00 0.00 93 1013.5
20260508001541 45 120 3.0 5.0 0.00 0.00 0.00 93 1013.5
20260508001341 45 111 3.0 5.0 0.00 0.00 0.00 93 1013.6
20260508001142 45 103 3.0 5.0 0.00 0.00 0.00 93 1013.5
20260508000943 45 106 3.0 5.0 0.00 0.00 0.00 93 1013.6
20260508000742 45 125 3.0 5.0 0.00 0.00 0.00 93 1013.5
20260508000535 45 109 3.0 5.0 0.00 0.00 0.00 93 1013.6
20260508000334 45 112 2.0 5.0 0.00 0.00 0.00 93 1013.7
20260508000125 45 129 2.0 5.0 0.00 0.00 0.00 93 1013.6
20260507235917 45 103 2.0 5.0 0.00 0.00 0.00 93 1013.7
20260507235716 45 127 2.0 5.0 0.00 0.00 0.00 93 1013.6
20260507235513 45 94 2.0 5.0 0.00 0.00 0.00 93 1013.7
20260507234948 45 96 2.0 4.0 0.00 0.00 0.00 93 1013.7
20260507234746 45 118 2.0 4.0 0.00 0.00 0.00 93 1013.7
20260507234541 45 117 2.0 4.0 0.00 0.00 0.00 93 1013.7
20260507234337 45 106 2.0 4.0 0.00 0.00 0.00 93 1013.8
20260507234134 45 123 2.0 4.0 0.00 0.00 0.00 93 1013.8
20260507233929 45 101 1.0 4.0 0.00 0.00 0.00 93 1013.8
20260507233406 45 117 1.0 2.0 0.00 0.00 0.00 93 1013.8
20260507233159 45 99 0.0 2.0 0.00 0.00 0.00 93 1013.8
20260507232957 45 80 0.0 2.0 0.00 0.00 0.00 93 1013.8
20260507232758 45 84 0.0 2.0 0.00 0.00 0.00 93 1013.8
20260507232548 45 115 0.0 3.0 0.00 0.00 0.00 93 1013.9
20260507232349 45 104 1.0 3.0 0.00 0.00 0.00 93 1014.0
20260507232139 45 111 1.0 3.0 0.00 0.00 0.00 92 1013.8
20260507231932 45 124 1.0 3.0 0.00 0.00 0.00 92 1013.8
20260507231733 45 108 1.0 3.0 0.00 0.00 0.00 92 1013.9
20260507231529 45 102 1.0 3.0 0.00 0.00 0.00 92 1013.8
20260507231010 45 107 0.0 3.0 0.00 0.00 0.00 92 1013.8
20260507230804 45 111 0.0 3.0 0.00 0.00 0.00 92 1013.9
20260507230602 45 116 0.0 2.0 0.00 0.00 0.00 92 1013.9
20260507230354 45 108 0.0 1.0 0.00 0.00 0.00 92 1013.9
20260507230152 46 105 0.0 1.0 0.00 0.00 0.00 92 1013.9
20260507225947 46 108 0.0 1.0 0.00 0.00 0.00 92 1014.0
20260507225056 46 105 0.0 1.0 0.00 0.00 0.00 91 1013.9
20260507224848 46 92 0.0 1.0 0.00 0.00 0.00 91 1013.8
20260507224644 46 91 0.0 1.0 0.00 0.00 0.00 91 1013.9
20260507224439 46 103 0.0 1.0 0.00 0.00 0.00 91 1013.8
20260507224239 46 85 0.0 1.0 0.00 0.00 0.00 91 1013.8
20260507224035 46 84 0.0 1.0 0.00 0.00 0.00 92 1013.8
20260507223827 46 80 0.0 1.0 0.00 0.00 0.00 92 1013.9
20260507223619 46 86 0.0 1.0 0.00 0.00 0.00 91 1013.8
20260507223409 46 85 0.0 0.0 0.00 0.00 0.00 91 1013.8
20260507223204 46 67 0.0 0.0 0.00 0.00 0.00 91 1013.8
20260507222958 47 65 0.0 0.0 0.00 0.00 0.00 91 1013.9
20260507222749 47 65 0.0 0.0 0.00 0.00 0.00 91 1014.0
20260507222540 47 65 0.0 0.0 0.00 0.00 0.00 91 1013.9
20260507222336 47 65 0.0 1.0 0.00 0.00 0.00 91 1014.0
20260507222131 47 65 0.0 1.0 0.00 0.00 0.00 91 1014.0
20260507221931 47 65 0.0 1.0 0.00 0.02 0.00 91 1013.9
20260507221723 47 53 0.0 0.0 0.00 0.02 0.00 90 1013.9
20260507221512 47 53 0.0 0.0 0.00 0.02 0.00 90 1013.9
20260507221304 47 53 0.0 0.0 0.00 0.05 0.00 90 1013.9
20260507221101 47 53 0.0 0.0 0.00 0.05 0.00 90 1013.9
20260507220851 47 53 0.0 0.0 0.00 0.05 0.00 90 1013.9
20260507220648 47 53 0.0 0.0 0.00 0.05 0.00 90 1013.9
20260507220440 47 53 0.0 0.0 0.00 0.05 0.00 90 1013.9
20260507220233 47 53 0.0 0.0 0.00 0.05 0.00 90 1013.9
20260507220033 47 53 0.0 0.0 0.00 0.05 0.00 90 1013.9
20260507215827 48 53 0.0 0.0 0.00 0.06 0.05 90 1013.9
20260507215622 48 53 0.0 0.0 0.00 0.06 0.05 90 1013.9
20260507215422 48 53 0.0 0.0 0.00 0.06 0.05 89 1013.8
20260507215214 48 53 0.0 0.0 0.00 0.06 0.05 89 1013.8
20260507215013 48 53 0.0 0.0 0.00 0.06 0.05 89 1013.9
20260507214811 48 53 0.0 0.0 0.00 0.06 0.05 89 1013.8
20260507214606 48 53 0.0 0.0 0.00 0.06 0.05 89 1013.9
20260507214404 48 53 0.0 0.0 0.00 0.06 0.05 89 1013.8
20260507214158 48 53 0.0 0.0 0.00 0.06 0.05 89 1013.8
20260507213640 48 51 0.0 1.0 0.00 0.06 0.05 89 1013.9
20260507213434 48 51 0.0 1.0 0.00 0.06 0.05 89 1013.9
20260507213227 48 51 0.0 1.0 0.00 0.06 0.05 89 1013.9
20260507213026 48 51 0.0 1.0 0.00 0.06 0.05 89 1014.0
20260507212500 48 47 0.0 0.0 0.00 0.06 0.05 89 1014.0
20260507211941 48 46 0.0 1.0 0.00 0.06 0.05 88 1013.9
20260507211408 48 46 0.0 0.0 0.00 0.06 0.05 88 1014.0
20260507211201 48 46 0.0 0.0 0.00 0.06 0.05 88 1014.0
20260507210952 48 46 0.0 0.0 0.00 0.06 0.05 88 1014.0
20260507210745 48 46 0.0 0.0 0.00 0.06 0.05 88 1013.9
20260507210544 48 46 0.0 0.0 0.00 0.06 0.05 88 1014.0
20260507210345 48 46 0.0 0.0 0.00 0.06 0.05 88 1014.1
20260507205813 48 46 0.0 3.0 0.00 0.06 0.05 88 1014.1
20260507205254 48 47 0.0 3.0 0.00 0.06 0.05 88 1014.1
20260507205050 48 42 0.0 3.0 0.00 0.06 0.05 88 1014.0
20260507204531 48 57 0.0 0.0 0.00 0.06 0.05 88 1014.0
20260507204321 48 58 0.0 0.0 0.00 0.06 0.05 88 1014.0
20260507204113 48 58 0.0 0.0 0.00 0.06 0.05 88 1013.8
20260507203909 48 58 0.0 0.0 0.00 0.06 0.05 88 1013.9
20260507203352 48 57 0.0 0.0 0.00 0.06 0.05 88 1013.8
20260507203151 48 57 0.0 0.0 0.00 0.06 0.05 88 1013.8
20260507202625 48 57 0.0 0.0 0.00 0.06 0.05 87 1013.8
20260507202055 49 56 0.0 0.0 0.00 0.06 0.05 87 1013.8
20260507201849 49 56 0.0 0.0 0.00 0.06 0.05 86 1013.8
20260507201648 49 56 0.0 0.0 0.00 0.06 0.05 86 1013.8
20260507201445 49 56 0.0 0.0 0.00 0.06 0.05 86 1013.7
20260507201242 49 56 0.0 0.0 0.00 0.06 0.05 86 1013.7
20260507201041 49 56 0.0 0.0 0.00 0.06 0.05 85 1013.8
20260507200835 49 56 0.0 0.0 0.00 0.06 0.05 85 1013.7
20260507200625 49 56 0.0 0.0 0.00 0.06 0.05 85 1013.6
20260507200423 50 56 0.0 0.0 0.00 0.06 0.05 85 1013.6
20260507200213 50 56 0.0 2.0 0.00 0.06 0.05 85 1013.6
20260507200007 50 56 0.0 2.0 0.00 0.06 0.05 85 1013.6
20260507195446 50 49 0.0 0.0 0.00 0.06 0.05 84 1013.6
20260507195240 50 49 0.0 2.0 0.00 0.06 0.05 84 1013.6
20260507195031 50 49 0.0 2.0 0.00 0.06 0.05 84 1013.6
20260507194831 50 47 0.0 2.0 0.00 0.06 0.05 84 1013.6
20260507194629 50 56 0.0 2.0 0.00 0.06 0.05 84 1013.6
20260507194429 50 44 0.0 2.0 0.00 0.06 0.05 84 1013.6
20260507194229 50 44 0.0 2.0 0.00 0.06 0.05 84 1013.5
20260507194022 50 49 0.0 2.0 0.00 0.06 0.05 84 1013.4
20260507193823 50 49 0.0 2.0 0.00 0.06 0.05 84 1013.4
20260507193623 50 51 0.0 2.0 0.00 0.06 0.05 84 1013.3
20260507193421 50 53 0.0 0.0 0.00 0.06 0.05 84 1013.4
20260507193218 50 53 0.0 3.0 0.00 0.06 0.05 84 1013.3
20260507193011 50 54 0.0 3.0 0.00 0.06 0.05 84 1013.4
20260507192805 50 58 0.0 3.0 0.00 0.06 0.05 83 1013.3
20260507192602 50 58 0.0 3.0 0.00 0.06 0.05 83 1013.3
20260507192355 50 49 0.0 3.0 0.00 0.06 0.05 83 1013.3
20260507192151 50 49 1.0 6.0 0.00 0.06 0.05 83 1013.3
20260507191949 50 57 1.0 6.0 0.00 0.06 0.05 83 1013.3
20260507191738 50 57 2.0 6.0 0.00 0.06 0.05 83 1013.3
20260507191531 51 65 3.0 6.0 0.00 0.06 0.05 83 1013.2
20260507191332 51 40 3.0 6.0 0.00 0.06 0.05 82 1013.2
20260507191124 51 50 3.0 6.0 0.00 0.06 0.05 82 1013.1
20260507190919 51 44 3.0 6.0 0.00 0.06 0.05 83 1013.2
20260507190712 51 46 3.0 6.0 0.00 0.06 0.05 83 1013.2
20260507190507 51 39 2.0 6.0 0.00 0.06 0.05 83 1013.2
20260507190304 51 45 2.0 5.0 0.00 0.06 0.05 83 1013.1
20260507185744 51 40 2.0 5.0 0.00 0.06 0.05 83 1013.2
20260507185545 51 44 2.0 5.0 0.00 0.06 0.05 82 1013.1
20260507185027 51 52 2.0 5.0 0.00 0.06 0.05 82 1013.0
20260507184817 51 53 2.0 5.0 0.00 0.06 0.05 82 1013.1
20260507184616 51 49 2.0 5.0 0.00 0.06 0.05 82 1013.1
20260507184407 51 43 1.0 5.0 0.00 0.06 0.05 82 1013.2
20260507184202 51 36 1.0 4.0 0.00 0.06 0.05 81 1013.1
20260507183958 51 51 1.0 4.0 0.00 0.06 0.05 81 1013.1
20260507183747 51 39 1.0 4.0 0.00 0.06 0.05 81 1013.1
20260507183541 51 46 1.0 4.0 0.00 0.06 0.05 81 1013.1
20260507182704 51 79 2.0 4.0 0.00 0.06 0.05 80 1013.1
20260507182459 51 42 2.0 4.0 0.00 0.06 0.05 80 1013.1
20260507181935 51 42 1.0 4.0 0.00 0.06 0.05 80 1013.1
20260507181730 51 47 1.0 3.0 0.00 0.06 0.05 80 1013.0
20260507181529 51 50 1.0 3.0 0.00 0.06 0.05 80 1013.0
20260507181330 51 57 1.0 4.0 0.00 0.06 0.05 80 1013.2
20260507181129 52 44 1.0 4.0 0.00 0.06 0.05 80 1013.1
20260507180925 52 46 1.0 4.0 0.00 0.06 0.05 80 1013.2
20260507180716 52 41 1.0 4.0 0.00 0.06 0.05 80 1013.2
20260507180513 52 45 1.0 4.0 0.00 0.06 0.05 80 1013.2
20260507180303 52 44 2.0 5.0 0.00 0.06 0.05 80 1013.1
20260507180059 52 50 2.0 5.0 0.00 0.06 0.05 79 1013.1
20260507175855 52 56 2.0 5.0 0.00 0.06 0.05 79 1013.1
20260507175651 52 42 2.0 5.0 0.00 0.06 0.05 79 1013.1
20260507175443 52 38 2.0 5.0 0.00 0.06 0.05 79 1013.0
20260507175236 52 50 2.0 5.0 0.00 0.06 0.05 78 1013.0
20260507175034 52 58 1.0 5.0 0.00 0.06 0.05 78 1013.1
20260507174833 52 49 1.0 5.0 0.00 0.06 0.05 78 1013.0
20260507174634 52 53 1.0 5.0 0.00 0.06 0.05 78 1013.0
20260507174424 52 41 0.0 4.0 0.00 0.06 0.05 78 1013.1
20260507174222 52 61 0.0 4.0 0.00 0.06 0.05 77 1013.0